[[{"header":{"parameterUnit":"m.s-1","parameterCategory":1,"la1":30.2991,"la2":30.254,"lo1":-89.0895,"lo2":-89.0444,"dy":0.0017,"dx":0.0017,"nx":28,"ny":28,"refTime":"2023-11-02T03:00:00:Z","depth":0,"parameterNumber":2,"parameterNumberName":"U-component_of_WINDS"},"data":[0,0,0,0,0,0,0,0,0,0,0,0,0,0,0,0,0,0,0,0,0,0,0,0,0,0,0,0,0,0,0,0,0,0,0,0,0,0,0,0,0,0,0,0,0,0,0,0,0,0,0,0,0,0,0,0,0,0,-4.5193,-4.5194,0,-4.5266,-4.5267,-4.5267,-4.5117,-4.5112,-4.5107,-4.5103,-4.5178,-4.5184,-4.5191,0,0,0,0,0,0,0,0,0,0,0,0,0,-4.4923,-4.4928,-4.5193,-4.5194,-4.5195,-4.5266,-4.5267,-4.5268,-4.5118,-4.5112,-4.5106,-4.51,-4.5176,-4.5183,-4.5191,0,0,0,0,0,0,0,0,0,0,0,0,0,-4.5022,-4.493,-4.5193,-4.5128,-4.5123,-4.5266,-4.5267,-4.5268,-4.5119,-4.5112,-4.5104,-4.5098,-4.5173,-4.5183,-4.5192,-4.54,0,0,-4.5222,-4.5227,0,0,0,0,0,0,0,0,-4.5017,-4.5032,-4.5137,-4.5133,-4.5128,-4.5175,-4.5199,-4.5312,-4.5121,-4.5121,-4.5102,-4.5094,-4.5183,-4.5191,-4.5221,-4.5404,-4.5407,-4.5223,-4.5229,-4.5234,-4.5236,0,0,0,0,0,0,0,-4.501,-4.5028,-4.5221,-4.5139,-4.5133,-4.5096,-4.5102,-4.522,-4.5192,-4.512,-4.5109,-4.512,-4.5179,-4.5212,-4.5222,-4.5408,-4.5223,-4.5232,-4.5238,-4.5242,-4.5763,-4.5771,0,0,0,0,0,0,-4.5011,-4.5024,-4.5219,-4.5224,-4.5053,-4.5107,-4.5113,-4.5167,-4.519,-4.5187,-4.5126,-4.5113,-4.5199,-4.5211,-4.5224,-4.5467,-4.5233,-4.5243,-4.5248,-4.5755,-4.5765,-4.5774,0,0,0,0,0,0,-4.5006,-4.503,-4.5216,-4.5121,-4.5142,-4.5119,-4.5181,-4.5172,-4.5205,-4.5195,-4.5189,-4.5166,-4.5194,-4.521,-4.5357,-4.5468,-4.5247,-4.5256,-4.5746,-4.5758,-4.5769,-4.5956,0,0,0,0,0,0,-4.4999,-4.5029,-4.5108,-4.5124,-4.5147,-4.5349,-4.5188,-4.5179,-4.5223,-4.5206,-4.523,-4.5227,-4.5189,-4.5343,-4.5367,-4.5477,-4.5264,-4.5736,-4.5751,-4.5765,-4.594,-4.5973,-4.6001,0,0,0,0,0,-4.499,-4.5159,-4.5113,-4.5137,-4.5246,-4.5356,-4.5369,-4.5322,-4.5232,-4.5311,-4.5304,-4.5226,-4.5452,-4.536,-4.5385,-4.55,-4.5729,-4.5747,-4.5764,-4.5926,-4.5967,-4.6001,0,0,0,0,0,0,-4.5157,-4.5159,-4.5109,-4.5288,-4.5323,-4.533,-4.5428,-4.5366,-4.5427,-4.5409,-4.5347,-4.5354,-4.5513,-4.5521,-4.5418,-4.5701,-4.5575,-4.5599,-4.569,-4.5728,-4.5758,-4.5752,-4.5272,0,0,0,0,0,-4.5214,-4.5304,-4.5301,-4.5459,-4.5479,-4.5451,-4.5497,-4.5458,-4.5491,-4.5505,-4.5509,-4.5545,-4.5623,-4.5676,-4.5748,-4.5942,-4.5944,-4.6033,-4.6064,-4.6089,-4.6109,-4.621,-4.6249,-4.5832,-4.5832,-4.5832,0,0,-4.5334,-4.5346,-4.5407,-4.5493,-4.5515,-4.5608,-4.5464,-4.5569,-4.5637,-4.5521,-4.5659,-4.5664,-4.57,-4.587,-4.5946,-4.5882,-4.6225,-4.6112,-4.6132,-4.6139,-4.6233,-4.6272,-4.6307,-4.5844,-4.5842,-4.584,0,0,-4.5599,-4.5619,-4.5751,-4.5776,-4.5812,-4.5792,-4.5824,-4.5842,-4.584,-4.5978,-4.5892,-4.5973,-4.611,-4.6138,-4.6171,-4.6447,-4.6377,-4.6473,-4.6632,-4.6731,-4.6764,-4.6792,-4.6889,-4.6924,-4.6494,-4.6494,-4.6495,0,-4.5743,-4.588,-4.5827,-4.5937,-4.5977,-4.5877,-4.601,-4.6037,-4.6095,-4.6124,-4.6053,-4.6222,-4.6239,-4.6414,-4.6481,-4.6512,-4.6546,-4.6468,-4.6763,-4.6792,-4.6818,-4.6909,-4.6946,-4.6505,-4.6504,-4.6503,-4.6502,0,-4.6054,-4.615,-4.6253,-4.6311,-4.6363,-4.6484,-4.6449,-4.6508,-4.6465,-4.6453,-4.6594,-4.6611,-4.6684,-4.6723,-4.6682,-4.6893,-4.6852,-4.6774,-4.6645,-4.6869,-4.6954,-4.6989,-4.6521,-4.6517,-4.6514,-4.6511,0,0,-4.6424,-4.6451,-4.649,-4.6514,-4.6546,-4.6619,-4.6737,-4.6808,-4.6858,-4.6902,-4.6997,-4.7116,-4.7043,-4.7081,-4.7042,-4.7129,-4.7345,-4.7039,-4.7039,-4.7093,-4.7575,-4.7632,-4.7673,-4.7299,-4.7306,-4.7311,-4.7571,0,-4.6684,-4.6885,-4.6841,-4.7038,-4.7125,-4.7032,-4.7133,-4.7164,-4.7156,-4.7229,-4.722,-4.7305,-4.7203,-4.7225,-4.7307,-4.7301,-4.744,-4.7282,-4.7386,-4.739,-4.7377,-4.7718,-4.7778,-4.8023,-4.7604,-4.761,-4.7614,0,-4.7014,-4.707,-4.7276,-4.7293,-4.7328,-4.742,-4.7481,-4.7553,-4.7586,-4.7574,-4.7616,-4.756,-4.7675,-4.7548,-4.7705,-4.7599,-4.7639,-4.7643,-4.7651,-4.7656,-4.7514,-4.773,-4.81,-4.8136,-4.7666,-4.7662,-4.7658,0,-4.7261,-4.7387,-4.7526,-4.755,-4.7575,-4.7641,-4.7654,-4.768,-4.7725,-4.7779,-4.7807,-4.7875,-4.7911,-4.7964,-4.7928,-4.7839,-4.8091,-4.7961,-4.8083,-4.8084,-4.8138,-4.8134,-4.8517,-4.8169,-4.8169,-4.8168,-4.8167,0,-4.7554,-4.7683,-4.7637,-4.7722,-4.7864,-4.7812,-4.7954,-4.7956,-4.798,-4.8063,-4.7987,-4.8067,-4.8016,-4.8092,-4.8065,-4.8198,-4.8216,-4.8209,-4.8199,-4.8214,-4.8214,-4.8237,-4.8218,-4.8178,-4.8176,-4.8174,-4.8172,0,-4.7852,-4.7826,-4.7971,-4.7982,-4.7988,-4.8092,-4.8101,-4.818,-4.8167,-4.8274,-4.8296,-4.8275,-4.8361,-4.8331,-4.8423,-4.8404,-4.8573,-4.8543,-4.8562,-4.8553,-4.8676,-4.8664,-4.9084,-4.9135,-4.8758,-4.8761,-4.8765,0,-4.8039,-4.8136,-4.8158,-4.8208,-4.8227,-4.831,-4.8355,-4.8309,-4.8359,-4.8404,-4.8478,-4.8557,-4.8616,-4.8758,-4.8751,-4.882,-4.879,-4.8932,-4.8799,-4.8811,-4.8788,-4.8782,-4.879,-4.8958,-4.8962,-4.8966,-4.8969,0,-4.8374,-4.8357,-4.8425,-4.849,-4.8547,-4.8596,-4.8638,-4.8683,-4.8639,-4.87,-4.8786,-4.8833,-4.8927,-4.9005,-4.9068,-4.9081,-4.9018,-4.9011,-4.9042,-4.9057,-4.9062,-4.9058,-4.8631,-4.9001,-4.8998,-4.8995,-4.8993,-4.8992,-4.862,-4.8701,-4.8729,-4.8808,-4.8834,-4.8876,-4.895,-4.8946,-4.9017,-4.9089,-4.9058,-4.9157,-4.9187,-4.9264,-4.9287,-4.9363,-4.9308,-4.9354,-4.9365,-4.9377,-4.9391,-4.9053,-4.9375,-4.9374,-4.9373,-4.9372,-4.9371,0,-4.8948,-4.8961,-4.9035,-4.9096,-4.9158,-4.9094,-4.9137,-4.9193,-4.9281,-4.9315,-4.9375,-4.9474,-4.955,-4.955,-4.962,-4.9682,-4.9654,-4.9702,-4.9695,-4.9699,-4.9438,-4.9402,-4.9722,-4.9722,-4.9722,-4.9722,-4.9722,-4.9722,-4.9126,-4.9259,-4.9245,-4.9391,-4.9403,-4.9499,-4.9529,-4.9566,-4.9592,-4.9705,-4.9768,-4.9768,-4.9787,-4.9859,-4.9925,-4.9923,-4.9952,-5.0009,-4.9996,-4.9752,-4.9717,-4.9684,-4.965,-5.0017,-5.0017,-5.025,-5.0252,-5.0254]},{"header":{"parameterUnit":"m.s-1","parameterCategory":1,"la1":30.2991,"la2":30.254,"lo1":-89.0895,"lo2":-89.0444,"dy":0.0017,"dx":0.0017,"nx":28,"ny":28,"refTime":"2023-11-02T03:00:00:Z","depth":0,"parameterNumber":3,"parameterNumberName":"V-component_of_WINDS"},"data":[0,0,0,0,0,0,0,0,0,0,0,0,0,0,0,0,0,0,0,0,0,0,0,0,0,0,0,0,0,0,0,0,0,0,0,0,0,0,0,0,0,0,0,0,0,0,0,0,0,0,0,0,0,0,0,0,0,0,-1.4194,-1.4193,0,-1.4177,-1.4177,-1.4177,-1.4214,-1.4216,-1.4217,-1.4218,-1.4199,-1.4197,-1.4196,0,0,0,0,0,0,0,0,0,0,0,0,0,-1.4255,-1.4253,-1.4194,-1.4193,-1.4193,-1.4177,-1.4177,-1.4176,-1.4214,-1.4216,-1.4217,-1.4219,-1.4199,-1.4197,-1.4195,0,0,0,0,0,0,0,0,0,0,0,0,0,-1.4232,-1.4253,-1.4194,-1.421,-1.4212,-1.4177,-1.4177,-1.4176,-1.4214,-1.4216,-1.4218,-1.4219,-1.42,-1.4198,-1.4195,-1.4143,0,0,-1.4188,-1.4186,0,0,0,0,0,0,0,0,-1.4233,-1.423,-1.4208,-1.4209,-1.421,-1.42,-1.4191,-1.4165,-1.4214,-1.4213,-1.4218,-1.422,-1.4197,-1.4195,-1.4188,-1.4142,-1.4141,-1.4187,-1.4186,-1.4185,-1.4184,0,0,0,0,0,0,0,-1.4235,-1.4231,-1.4187,-1.4208,-1.4209,-1.4217,-1.4216,-1.4186,-1.4195,-1.4213,-1.4216,-1.4213,-1.4198,-1.419,-1.4188,-1.4141,-1.4187,-1.4185,-1.4184,-1.4183,-1.4048,-1.4046,0,0,0,0,0,0,-1.4235,-1.4232,-1.4188,-1.4187,-1.4227,-1.4215,-1.4213,-1.4201,-1.4196,-1.4196,-1.4212,-1.4215,-1.4194,-1.4191,-1.4187,-1.4123,-1.4185,-1.4182,-1.4181,-1.405,-1.4047,-1.4045,0,0,0,0,0,0,-1.4236,-1.423,-1.4188,-1.421,-1.4205,-1.4212,-1.4198,-1.42,-1.4192,-1.4195,-1.4196,-1.4202,-1.4195,-1.4191,-1.4153,-1.4123,-1.4181,-1.4179,-1.4052,-1.4049,-1.4046,-1.3996,0,0,0,0,0,0,-1.4237,-1.4231,-1.4212,-1.4209,-1.4204,-1.4155,-1.4196,-1.4198,-1.4188,-1.4192,-1.4186,-1.4187,-1.4196,-1.4157,-1.4151,-1.4121,-1.4177,-1.4055,-1.4051,-1.4047,-1.4,-1.3992,-1.3984,0,0,0,0,0,-1.424,-1.4199,-1.4211,-1.4205,-1.4181,-1.4154,-1.415,-1.4163,-1.4185,-1.4166,-1.4167,-1.4187,-1.4128,-1.4152,-1.4146,-1.4115,-1.4057,-1.4052,-1.4048,-1.4004,-1.3993,-1.3984,0,0,0,0,0,0,-1.4198,-1.4199,-1.4212,-1.417,-1.4161,-1.416,-1.4136,-1.4152,-1.4136,-1.4141,-1.4156,-1.4154,-1.4113,-1.4111,-1.4138,-1.4063,-1.4096,-1.409,-1.4065,-1.4055,-1.4047,-1.4047,-1.4175,0,0,0,0,0,-1.4184,-1.4163,-1.4164,-1.4127,-1.4122,-1.4129,-1.4118,-1.4128,-1.412,-1.4116,-1.4115,-1.4105,-1.4084,-1.407,-1.4051,-1.4001,-1.3998,-1.3976,-1.3968,-1.3961,-1.3955,-1.3925,-1.3914,-1.403,-1.403,-1.403,0,0,-1.4154,-1.4152,-1.4138,-1.4118,-1.4113,-1.4088,-1.4126,-1.41,-1.4081,-1.4112,-1.4075,-1.4074,-1.4064,-1.4019,-1.3999,-1.4016,-1.3923,-1.3955,-1.395,-1.3947,-1.3919,-1.3908,-1.3898,-1.4026,-1.4027,-1.4028,0,0,-1.4088,-1.4085,-1.4052,-1.4045,-1.4037,-1.4042,-1.4034,-1.403,-1.403,-1.3994,-1.4015,-1.3993,-1.3958,-1.3948,-1.3939,-1.3866,-1.3883,-1.386,-1.3816,-1.3787,-1.3777,-1.3769,-1.374,-1.373,-1.3854,-1.3854,-1.3854,0,-1.4052,-1.4018,-1.4033,-1.4004,-1.3993,-1.402,-1.3985,-1.3978,-1.3963,-1.3954,-1.3974,-1.3927,-1.3923,-1.3874,-1.3856,-1.3849,-1.3838,-1.386,-1.3778,-1.377,-1.3763,-1.3735,-1.3724,-1.3851,-1.3851,-1.3852,-1.3852,0,-1.3972,-1.3948,-1.3922,-1.3906,-1.3893,-1.3861,-1.387,-1.3854,-1.3865,-1.3867,-1.3828,-1.3824,-1.3802,-1.3792,-1.3803,-1.3744,-1.3754,-1.3776,-1.3809,-1.3748,-1.3722,-1.3712,-1.3847,-1.3848,-1.3849,-1.3849,0,0,-1.3879,-1.3871,-1.3861,-1.3852,-1.3844,-1.3825,-1.3793,-1.3773,-1.3757,-1.3746,-1.3718,-1.3686,-1.3705,-1.3694,-1.3704,-1.3678,-1.3617,-1.3702,-1.3702,-1.3684,-1.3547,-1.3529,-1.3517,-1.3629,-1.3627,-1.3625,-1.3547,0,-1.381,-1.3756,-1.3768,-1.3714,-1.369,-1.3714,-1.3686,-1.3677,-1.3678,-1.3656,-1.3657,-1.3633,-1.3661,-1.3654,-1.363,-1.3629,-1.3589,-1.3636,-1.36,-1.3598,-1.3599,-1.3504,-1.3486,-1.3412,-1.3537,-1.3536,-1.3535,0,-1.3724,-1.3708,-1.3651,-1.3644,-1.3634,-1.3609,-1.3589,-1.3569,-1.3558,-1.356,-1.3547,-1.3561,-1.3528,-1.3563,-1.3515,-1.3546,-1.3532,-1.353,-1.3527,-1.3522,-1.3561,-1.3493,-1.339,-1.3377,-1.3519,-1.3521,-1.3522,0,-1.3657,-1.3622,-1.3583,-1.3575,-1.3567,-1.3548,-1.3543,-1.3534,-1.352,-1.3503,-1.3493,-1.3472,-1.346,-1.3443,-1.345,-1.3476,-1.3399,-1.3436,-1.3398,-1.3397,-1.3379,-1.3379,-1.3268,-1.3374,-1.3375,-1.3375,-1.3375,0,-1.3578,-1.3541,-1.3552,-1.3528,-1.3487,-1.35,-1.3459,-1.3457,-1.3448,-1.3422,-1.3442,-1.3417,-1.343,-1.3405,-1.341,-1.3368,-1.3363,-1.3362,-1.3363,-1.3358,-1.3358,-1.3348,-1.3352,-1.3372,-1.3373,-1.3373,-1.3374,0,-1.3496,-1.3502,-1.346,-1.3455,-1.3452,-1.3422,-1.3417,-1.3393,-1.3395,-1.3362,-1.3355,-1.3357,-1.3329,-1.3335,-1.3304,-1.3307,-1.3253,-1.3262,-1.3256,-1.3257,-1.3217,-1.322,-1.3093,-1.3076,-1.3196,-1.3195,-1.3194,0,-1.3443,-1.3416,-1.3407,-1.3391,-1.3384,-1.3359,-1.3345,-1.3356,-1.334,-1.3323,-1.33,-1.3274,-1.3253,-1.3206,-1.3205,-1.318,-1.3187,-1.3144,-1.3183,-1.3178,-1.3182,-1.3183,-1.3178,-1.3136,-1.3134,-1.3133,-1.3132,0,-1.3349,-1.3353,-1.3331,-1.331,-1.3292,-1.3275,-1.3261,-1.3247,-1.3256,-1.3237,-1.3208,-1.3192,-1.3159,-1.3131,-1.3108,-1.3102,-1.3117,-1.312,-1.3109,-1.3103,-1.3099,-1.3097,-1.3232,-1.3123,-1.3124,-1.3124,-1.3125,-1.3125,-1.3278,-1.3253,-1.3242,-1.3217,-1.3207,-1.3192,-1.3168,-1.3167,-1.3144,-1.3118,-1.3126,-1.3092,-1.3079,-1.3049,-1.304,-1.3013,-1.3028,-1.3014,-1.3009,-1.3005,-1.2998,-1.3106,-1.3009,-1.3009,-1.3009,-1.301,-1.301,0,-1.3182,-1.3175,-1.3152,-1.313,-1.3109,-1.3127,-1.3111,-1.3092,-1.3062,-1.3049,-1.3028,-1.2993,-1.2965,-1.2961,-1.2934,-1.2913,-1.2919,-1.2905,-1.2905,-1.2903,-1.2987,-1.2998,-1.29,-1.29,-1.29,-1.29,-1.29,-1.29,-1.3129,-1.3087,-1.3089,-1.3041,-1.3035,-1.3002,-1.2991,-1.2977,-1.2966,-1.2926,-1.2903,-1.2901,-1.289,-1.2862,-1.2837,-1.2836,-1.2824,-1.2807,-1.2808,-1.2887,-1.2897,-1.2908,-1.2917,-1.2805,-1.2805,-1.2726,-1.2725,-1.2724]}]]